DW8915 Weather Reports


time (UTC)temp
F
wind
direction
speed
knots
gust
knots
rain 1hr
in
rain 24hr
in
rain mn
in
humidity
%
barometer
mb
20260510224554 71 29 7.0 0.0 0.00 0.00 0.00 61 1009.9
20260510223051 71 23 7.0 0.0 0.00 0.00 0.00 62 1009.4
20260510221548 72 360 7.0 0.0 0.00 0.00 0.00 61 1009.5
20260510220048 74 69 7.8 0.0 0.00 0.00 0.00 58 1009.2
20260510214544 76 19 7.8 0.0 0.00 0.00 0.00 55 1008.1
20260510213041 79 360 7.0 0.0 0.00 0.00 0.00 53 1007.4
20260510211539 81 20 7.0 0.0 0.00 0.00 0.00 51 1006.5
20260510210042 82 360 7.0 0.0 0.00 0.00 0.00 50 1006.5
20260510204535 84 21 7.0 0.0 0.00 0.00 0.00 47 1005.9
20260510203033 84 5 7.8 0.0 0.00 0.00 0.00 47 1005.2
20260510201533 87 337 9.6 0.0 0.00 0.00 0.00 46 1005.2
20260510200031 93 360 5.2 0.0 0.00 0.00 0.00 34 1004.9
20260510194529 92 13 3.5 0.0 0.00 0.00 0.00 33 1004.9
20260510193029 93 10 4.3 0.0 0.00 0.00 0.00 31 1004.7
20260510191528 95 360 4.3 0.0 0.00 0.00 0.00 31 1004.5
20260510190027 95 9 4.3 0.0 0.00 0.00 0.00 31 1004.8
20260510184526 95 333 5.2 0.0 0.00 0.00 0.00 30 1004.7
20260510183025 96 5 3.5 0.0 0.00 0.00 0.00 27 1004.5
20260510181525 96 301 2.6 0.0 0.00 0.00 0.00 23 1004.5
20260510180021 95 360 1.7 0.0 0.00 0.00 0.00 27 1004.7
20260510174518 93 105 1.7 0.0 0.00 0.00 0.00 28 1004.6
20260510173015 92 360 1.7 0.0 0.00 0.00 0.00 29 1004.6
20260510171512 90 206 1.7 0.0 0.00 0.00 0.00 31 1004.7
20260510170011 90 279 2.6 0.0 0.00 0.00 0.00 29 1004.5
20260510164509 90 201 3.5 0.0 0.00 0.00 0.00 34 1004.6
20260510163007 88 212 3.5 0.0 0.00 0.00 0.00 35 1004.4
20260510161502 87 195 4.3 0.0 0.00 0.00 0.00 36 1004.4
20260510160057 86 192 5.2 0.0 0.00 0.00 0.00 39 1003.9
20260510154557 85 197 5.2 0.0 0.00 0.00 0.00 43 1003.9
20260510153049 83 170 5.2 0.0 0.00 0.00 0.00 47 1003.8
20260510151549 81 180 5.2 0.0 0.00 0.00 0.00 49 1003.8
20260510150051 80 208 4.3 0.0 0.00 0.00 0.00 50 1003.8
20260510144557 79 207 4.3 0.0 0.00 0.00 0.00 52 1003.8
20260510143039 79 169 5.2 0.0 0.00 0.00 0.00 55 1003.6
20260510141536 78 175 4.3 0.0 0.00 0.00 0.00 56 1003.5
20260510140033 75 190 3.5 0.0 0.00 0.00 0.00 62 1003.5
20260510134531 73 207 1.7 0.0 0.00 0.00 0.00 66 1003.6
20260510133028 72 118 3.5 0.0 0.00 0.00 0.00 66 1003.4
20260510131527 72 192 3.5 0.0 0.00 0.00 0.00 67 1003.3
20260510130024 71 142 4.3 0.0 0.00 0.00 0.00 67 1003.0
20260510124524 71 171 3.5 0.0 0.00 0.00 0.00 68 1002.9
20260510123019 70 202 4.3 0.0 0.00 0.00 0.00 67 1002.7
20260510121520 70 159 3.5 0.0 0.00 0.00 0.00 67 1002.6
20260510120022 70 187 2.6 0.0 0.00 0.00 0.00 66 1002.7
20260510114516 71 144 2.6 0.0 0.00 0.00 0.00 65 1002.5
20260510113013 71 147 2.6 0.0 0.00 0.00 0.00 65 1002.4
20260510111512 71 198 3.5 0.0 0.00 0.00 0.00 65 1002.5
20260510110013 71 136 2.6 0.0 0.00 0.00 0.00 64 1002.3
20260510104513 71 173 3.5 0.0 0.00 0.00 0.00 64 1002.0
20260510103009 71 153 3.5 0.0 0.00 0.00 0.00 62 1001.9
20260510101507 72 165 3.5 0.0 0.00 0.00 0.00 61 1001.9
20260510100007 72 169 2.6 0.0 0.00 0.00 0.00 61 1001.9
20260510094517 72 169 2.6 0.0 0.00 0.00 0.00 60 1001.9
20260510093003 72 156 2.6 0.0 0.00 0.00 0.00 59 1001.9
20260510091505 72 163 2.6 0.0 0.00 0.00 0.00 57 1001.9
20260510090001 73 152 2.6 0.0 0.00 0.00 0.00 56 1002.0
20260510084559 73 150 3.5 0.0 0.00 0.00 0.00 56 1001.9
20260510083106 73 136 2.6 0.0 0.00 0.00 0.00 56 1001.8
20260510081628 73 184 2.6 0.0 0.00 0.00 0.00 56 1001.9
20260510080056 74 199 3.5 0.0 0.00 0.00 0.00 54 1002.0
20260510074554 74 200 3.5 0.0 0.00 0.00 0.00 53 1002.2
20260510073049 74 187 3.5 0.0 0.00 0.00 0.00 52 1002.4
20260510071546 75 172 3.5 0.0 0.00 0.00 0.00 50 1002.6
20260510070047 75 161 3.5 0.0 0.00 0.00 0.00 48 1002.7
20260510064543 75 155 3.5 0.0 0.00 0.00 0.00 45 1002.7
20260510063041 75 167 3.5 0.0 0.00 0.00 0.00 44 1002.8
20260510061539 76 129 2.6 0.0 0.00 0.00 0.00 43 1002.9
20260510060046 77 152 3.5 0.0 0.00 0.00 0.00 42 1002.8
20260510054534 77 171 3.5 0.0 0.00 0.00 0.00 41 1002.7
20260510053032 77 148 4.3 0.0 0.00 0.00 0.00 40 1002.7
20260510051529 78 155 4.3 0.0 0.00 0.00 0.00 40 1002.6
20260510050027 78 151 4.3 0.0 0.00 0.00 0.00 39 1002.7
20260510044524 79 159 4.3 0.0 0.00 0.00 0.00 38 1002.7
20260510043025 79 157 4.3 0.0 0.00 0.00 0.00 36 1002.7
20260510041530 80 144 4.3 0.0 0.00 0.00 0.00 34 1002.7
20260510040025 81 140 4.3 0.0 0.00 0.00 0.00 32 1002.6
20260510034523 81 176 4.3 0.0 0.00 0.00 0.00 30 1002.5
20260510033024 82 150 3.5 0.0 0.00 0.00 0.00 29 1002.4
20260510031533 83 168 4.3 0.0 0.00 0.00 0.00 28 1002.3
20260510030023 83 158 5.2 0.0 0.00 0.00 0.00 28 1002.2
20260510024523 84 120 4.3 0.0 0.00 0.00 0.00 27 1002.1
20260510023036 85 150 4.3 0.0 0.00 0.00 0.00 27 1001.9
20260510021523 86 165 4.3 0.0 0.00 0.00 0.00 26 1001.8
20260510020021 87 152 4.3 0.0 0.00 0.00 0.00 25 1001.6
20260510014521 88 152 3.5 0.0 0.00 0.00 0.00 22 1001.4
20260510013020 89 143 3.5 0.0 0.00 0.00 0.00 19 1001.2
20260510011524 90 145 1.7 0.0 0.00 0.00 0.00 18 1001.0
20260510010025 91 132 2.6 0.0 0.00 0.00 0.00 18 1001.0
20260510004519 91 152 3.5 0.0 0.00 0.00 0.00 17 1001.1
20260510003017 92 180 3.5 0.0 0.00 0.00 0.00 16 1001.1
20260510001517 92 186 2.6 0.0 0.00 0.00 0.00 17 1001.2
20260510000015 93 141 3.5 0.0 0.00 0.00 0.00 17 1001.3
20260509234514 93 156 3.5 0.0 0.00 0.00 0.00 17 1001.4
20260509233013 93 210 2.6 0.0 0.00 0.00 0.00 17 1001.4
20260509231512 93 215 2.6 0.0 0.00 0.00 0.00 17 1001.6
20260509230010 93 146 3.5 0.0 0.00 0.00 0.00 18 1001.7